Watford City, ND

7:09 AM CDT on June 27, 2017 (GMT -0500)
Watford City

Weather History for KS25 - December, 2013

Change the Weather History Date:

Sunday, December 22, 2013

  Actual Average (KISN) Record (KISN)
Temperature  
Mean Temperature -16 °F -  
Max Temperature -4 °F 20 °F 55 °F (1954)
Min Temperature -27 °F 0 °F -38 °F (1983)
Degree Days  
Heating Degree Days 80    
Moisture  
Dew Point -18 °F    
Average Humidity 76    
Maximum Humidity 84    
Minimum Humidity 65    
Precipitation  
Precipitation 0.00 in - - ()
Sea Level Pressure  
Sea Level Pressure 30.22 in    
Wind  
Wind Speed 4 mph (WSW)    
Max Wind Speed 10 mph    
Max Gust Speed -    
Visibility 10 miles    
Events Snow    
Averages and records for this station are not official NWS values.
T = Trace of Precipitation, MM = Missing Value Source: NWS Daily Summary

Daily Weather History Graph

Daily Weather History Graph

Search for Another Location

Airport or City:

Trip Planner

Search our weather history database for the weather conditions in past years. The results will help you decide how hot, cold, wet, or windy it might be!

Date:

Astronomy

Dec. 22, 2013 Rise Set
Actual Time 8:39 AM CST 5:03 PM CST
Civil Twilight 8:03 AM CST 5:40 PM CST
Nautical Twilight 7:24 AM CST 6:19 PM CST
Astronomical Twilight 6:46 AM CST 6:57 PM CST
Moon 10:40 PM CST (12/22) 11:17 AM CST (12/22)
Length of Visible Light 9h 36m
Length of Day
8h 23m
Waning Gibbous, 76% of the Moon is Illuminated
Dec 22
Waning Gibbous
Dec 25
Last Quarter
Jan 1
New
Jan 7
First Quarter
Jan 15
Full

Hourly Weather History & Observations

Time (CST) Temp. Windchill Dew Point Humidity Pressure Visibility Wind Dir Wind Speed Gust Speed Precip Events Conditions
12:15 AM -7.6 °F -18.8 °F -13.0 °F 77% 30.05 in 10.0 mi North 4.6 mph - N/A   Overcast
12:35 AM -7.6 °F -18.8 °F -13.0 °F 77% 30.05 in 10.0 mi North 4.6 mph - N/A   Overcast
12:55 AM -4.0 °F -17.8 °F -9.4 °F 78% 30.05 in 10.0 mi East 6.9 mph - N/A   Overcast
1:15 AM -4.0 °F -14.6 °F -9.4 °F 78% 30.05 in 10.0 mi North 4.6 mph - N/A   Overcast
1:35 AM -4.0 °F -17.8 °F -9.4 °F 78% 30.05 in 10.0 mi ESE 6.9 mph - N/A   Overcast
1:55 AM -4.0 °F -16.3 °F -11.2 °F 71% 30.05 in 10.0 mi ESE 5.8 mph - N/A   Overcast
2:15 AM -4.0 °F -14.6 °F -9.4 °F 78% 30.05 in 10.0 mi North 4.6 mph - N/A   Overcast
2:35 AM -4.0 °F -14.6 °F -9.4 °F 78% 30.05 in 10.0 mi North 4.6 mph - N/A   Overcast
2:55 AM -4.0 °F -17.8 °F -9.4 °F 78% 30.06 in 7.0 mi ESE 6.9 mph - N/A Snow Light Snow
3:15 AM -5.8 °F -18.4 °F - N/A% 30.07 in 10.0 mi ESE 5.8 mph - N/A Snow Light Snow
3:35 AM -7.6 °F - -13.0 °F 77% 30.08 in 10.0 mi Calm Calm - N/A   Overcast
3:55 AM -9.4 °F - -14.8 °F 77% 30.08 in 10.0 mi Calm Calm - N/A   Overcast
4:15 AM -11.2 °F - -14.8 °F 84% 30.09 in 10.0 mi Calm Calm - N/A   Mostly Cloudy
4:35 AM -11.2 °F - -16.6 °F 77% 30.09 in 5.0 mi Calm Calm - N/A   Overcast
4:55 AM -13.0 °F - -16.6 °F 84% 30.09 in 10.0 mi Calm Calm - N/A   Overcast
5:15 AM -11.2 °F - -14.8 °F 84% 30.10 in 10.0 mi Calm Calm - N/A   Overcast
5:35 AM -9.4 °F - -14.8 °F 77% 30.10 in 10.0 mi Calm Calm - N/A   Overcast
5:55 AM -9.4 °F - -13.0 °F 84% 30.11 in 10.0 mi Calm Calm - N/A   Overcast
6:15 AM -11.2 °F - -16.6 °F 77% 30.11 in 10.0 mi Calm Calm - N/A   Overcast
6:35 AM -13.0 °F -22.7 °F -18.4 °F 77% 30.12 in 10.0 mi SW 3.5 mph - N/A   Overcast
6:55 AM -14.8 °F -24.8 °F -20.2 °F 77% 30.13 in 10.0 mi SW 3.5 mph - N/A   Overcast
7:15 AM -16.6 °F -29.3 °F -20.2 °F 84% 30.13 in 10.0 mi South 4.6 mph - N/A   Overcast
7:35 AM -18.4 °F - -22.0 °F 84% 30.14 in 10.0 mi Calm Calm - N/A   Overcast
7:55 AM -20.2 °F -30.9 °F -25.6 °F 76% 30.14 in 10.0 mi WSW 3.5 mph - N/A   Scattered Clouds
8:15 AM -20.2 °F -30.9 °F -25.6 °F 76% 30.14 in 10.0 mi SSW 3.5 mph - N/A   Clear
8:35 AM -22.0 °F - -27.4 °F 76% 30.16 in 10.0 mi Calm Calm - N/A   Partly Cloudy
8:55 AM -22.0 °F - -27.4 °F 76% 30.16 in 10.0 mi Calm Calm - N/A   Clear
9:15 AM -20.2 °F -30.9 °F -25.6 °F 76% 30.16 in 9.0 mi SW 3.5 mph - N/A   Mostly Cloudy
9:35 AM -16.6 °F -29.3 °F -22.0 °F 76% 30.17 in 10.0 mi SW 4.6 mph - N/A   Overcast
9:55 AM -13.0 °F -27.0 °F -18.4 °F 77% 30.18 in 7.0 mi SW 5.8 mph - N/A Snow Light Snow
10:15 AM -11.2 °F -24.8 °F -16.6 °F 77% 30.19 in 5.0 mi SW 5.8 mph - N/A Snow Light Snow
10:35 AM -11.2 °F -23.0 °F -16.6 °F 77% 30.20 in 9.0 mi SW 4.6 mph - N/A   Overcast
10:55 AM -9.4 °F -22.7 °F -13.0 °F 84% 30.20 in 10.0 mi SW 5.8 mph - N/A   Overcast
11:15 AM -7.6 °F -20.6 °F -13.0 °F 77% 30.21 in 10.0 mi WSW 5.8 mph - N/A   Overcast
11:35 AM -7.6 °F -20.6 °F -13.0 °F 77% 30.22 in 10.0 mi WSW 5.8 mph - N/A   Scattered Clouds
11:55 AM -7.6 °F -20.6 °F -11.2 °F 84% 30.22 in 10.0 mi WSW 5.8 mph - N/A   Partly Cloudy
12:15 PM -7.6 °F -18.8 °F - N/A% 30.22 in 10.0 mi West 4.6 mph - N/A   Clear
12:35 PM -5.8 °F - -11.2 °F 77% 30.21 in 10.0 mi Calm Calm - N/A   Clear
12:55 PM -4.0 °F - -11.2 °F 71% 30.22 in 10.0 mi Calm Calm - N/A   Clear
1:15 PM -4.0 °F -20.2 °F -11.2 °F 71% 30.22 in 10.0 mi NW 9.2 mph - N/A   Clear
1:35 PM -4.0 °F -17.8 °F -11.2 °F 71% 30.22 in 10.0 mi NW 6.9 mph - N/A   Partly Cloudy
1:55 PM -4.0 °F -17.8 °F -13.0 °F 65% 30.22 in 10.0 mi NW 6.9 mph - N/A Snow Light Snow
2:15 PM -4.0 °F -21.2 °F -13.0 °F 65% 30.22 in 10.0 mi WNW 10.4 mph - N/A   Clear
2:35 PM -4.0 °F -17.8 °F -13.0 °F 65% 30.23 in 10.0 mi NW 6.9 mph - N/A   Clear
2:55 PM -4.0 °F -17.8 °F -13.0 °F 65% 30.24 in 10.0 mi WNW 6.9 mph - N/A   Clear
3:15 PM -5.8 °F -18.4 °F -13.0 °F 71% 30.24 in 10.0 mi WNW 5.8 mph - N/A Snow Light Snow
3:35 PM -5.8 °F -19.9 °F -13.0 °F 71% 30.26 in 10.0 mi WNW 6.9 mph - N/A   Mostly Cloudy
3:55 PM -5.8 °F -18.4 °F -13.0 °F 71% 30.26 in 8.0 mi West 5.8 mph - N/A Snow Light Snow
4:15 PM -5.8 °F -19.9 °F -13.0 °F 71% 30.27 in 10.0 mi West 6.9 mph - N/A   Partly Cloudy
4:35 PM -7.6 °F -20.6 °F -13.0 °F 77% 30.28 in 10.0 mi West 5.8 mph - N/A   Clear
4:55 PM -7.6 °F -20.6 °F -14.8 °F 71% 30.29 in 10.0 mi West 5.8 mph - N/A   Clear
5:15 PM -9.4 °F -22.7 °F -16.6 °F 71% 30.30 in 10.0 mi WSW 5.8 mph - N/A   Clear
5:35 PM -13.0 °F -25.1 °F -18.4 °F 77% 30.31 in 10.0 mi WSW 4.6 mph - N/A   Clear
5:55 PM -14.8 °F - -18.4 °F 84% 30.32 in 10.0 mi Calm Calm - N/A   Clear
6:15 PM -16.6 °F -26.8 °F -20.2 °F 84% 30.33 in 10.0 mi WSW 3.5 mph - N/A   Clear
6:35 PM -16.6 °F -26.8 °F -20.2 °F 84% 30.33 in 10.0 mi SSW 3.5 mph - N/A   Clear
6:55 PM -16.6 °F -26.8 °F -22.0 °F 76% 30.34 in 10.0 mi SSW 3.5 mph - N/A   Clear
7:15 PM -20.2 °F - -23.8 °F 83% 30.35 in 10.0 mi Calm Calm - N/A   Clear
7:35 PM -18.4 °F - -22.0 °F 84% 30.36 in 10.0 mi Calm Calm - N/A   Partly Cloudy
7:55 PM -20.2 °F -30.9 °F -25.6 °F 76% 30.36 in 10.0 mi WSW 3.5 mph - N/A   Clear
8:15 PM -20.2 °F -30.9 °F -25.6 °F 76% 30.37 in 10.0 mi SW 3.5 mph - N/A   Clear
8:35 PM -20.2 °F - -25.6 °F 76% 30.37 in 10.0 mi Calm Calm - N/A   Clear
8:55 PM -22.0 °F -35.6 °F -27.4 °F 76% 30.38 in 10.0 mi WSW 4.6 mph - N/A   Clear
9:15 PM -22.0 °F -33.0 °F -27.4 °F 76% 30.39 in 10.0 mi South 3.5 mph - N/A   Clear
9:35 PM -23.8 °F - -29.2 °F 76% 30.39 in 10.0 mi Calm Calm - N/A   Clear
9:55 PM -23.8 °F - -29.2 °F 76% 30.39 in 10.0 mi Calm Calm - N/A   Clear
10:15 PM -22.0 °F - -29.2 °F 69% 30.39 in 10.0 mi Calm Calm - N/A   Clear
10:35 PM -23.8 °F -35.0 °F -29.2 °F 76% 30.40 in 10.0 mi SW 3.5 mph - N/A   Clear
10:55 PM -25.6 °F - -29.2 °F 83% 30.40 in 10.0 mi Calm Calm - N/A   Clear
11:15 PM -25.6 °F - -31.0 °F 76% 30.40 in 10.0 mi Calm Calm - N/A   Clear
11:35 PM -27.4 °F -39.2 °F -34.6 °F 69% 30.41 in 10.0 mi SSW 3.5 mph - N/A   Clear
11:55 PM -27.4 °F - -34.6 °F 69% 30.41 in 10.0 mi Calm Calm - N/A   Clear